This demonstration page uses our WeatherBlox Daily Observations layout. Learn more.

Left ArrowRight Arrow

Hourly Observations for April 21, 2016

Temp ( °F °C ) Dew Point ( °F °C ) Humidity (%) Winds ( mph kmh ) Pressure ( in mb ) Visibility ( mi km ) Precip ( " mm )
12:53 am 00:53 Clear 60 15.6 39 3.9 46 46 Calm 29.86 1011 10 16 0.00 0.00
1:53 am 01:53 Clear 55 12.8 43 6.1 64 64 N 5 7 29.86 1011 10 16 0.00 0.00
2:53 am 02:53 Clear 54 12.2 43 6.1 67 67 N 5 7 29.85 1011 10 16 0.00 0.00
3:53 am 03:53 Clear 54 12.2 42 5.6 64 64 Calm 29.86 1011 10 16 0.00 0.00
4:53 am 04:53 Clear 53 11.7 44 6.7 72 72 NW 3 6 29.86 1011 10 16 0.00 0.00
5:53 am 05:53 Clear 50 10 44 6.7 80 80 N 3 6 29.86 1011 10 16 0.00 0.00
6:53 am 06:53 Sunny 50 10 44 6.7 80 80 Calm 29.87 1012 10 16 0.00 0.00
7:53 am 07:53 Sunny 54 12.2 45 7.2 72 72 NE 5 7 29.87 1012 10 16 0.00 0.00
8:53 am 08:53 Sunny 60 15.6 46 7.8 60 60 Calm 29.88 1012 10 16 0.00 0.00
9:53 am 09:53 Sunny 63 17.2 47 8.3 56 56 Calm 29.86 1011 10 16 0.00 0.00
10:53 am 10:53 Sunny 67 19.4 46 7.8 47 47 undefined N/A 29.85 1011 10 16 0.00 0.00
11:53 am 11:53 Sunny 69 20.6 48 8.9 47 47 VRB 6 9 29.83 1010 10 16 0.00 0.00
12:53 pm 12:53 Mostly Sunny 70 21.1 49 9.4 47 47 E 6 9 29.81 1010 10 16 0.00 0.00
1:53 pm 13:53 Mostly Sunny 73 22.8 50 10 44 44 S 13 20 29.80 1009 10 16 0.00 0.00
2:53 pm 14:53 Mostly Sunny 76 24.4 50 10 40 40 S 15 24 29.77 1008 10 16 0.00 0.00
3:53 pm 15:53 Partly Cloudy 77 25 49 9.4 37 37 SSE 20 31 29.75 1007 10 16 0.00 0.00
4:53 pm 16:53 Mostly Sunny 76 24.4 49 9.4 39 39 S 18 30 29.73 1007 10 16 0.00 0.00
5:53 pm 17:53 Sunny 74 23.3 50 10 43 43 S 23 37 29.72 1006 10 16 0.00 0.00
6:53 pm 18:53 Sunny 72 22.2 48 8.9 43 43 SSE 16 26 29.71 1006 10 16 0.00 0.00
7:53 pm 19:53 Sunny 70 21.1 47 8.3 44 44 S 21 33 29.71 1006 10 16 0.00 0.00
8:53 pm 20:53 Clear 68 20 46 7.8 45 45 SSE 14 22 29.72 1007 10 16 0.00 0.00
9:53 pm 21:53 Clear 66 18.9 46 7.8 49 49 SSE 13 20 29.73 1007 10 16 0.00 0.00
10:53 pm 22:53 Clear 64 17.8 47 8.3 54 54 SSE 15 24 29.72 1006 10 16 0.00 0.00
11:53 pm 23:53 Clear 62 16.7 47 8.3 58 58 SSE 15 24 29.72 1006 10 16 0.00 0.00

Powered by AerisWeather